JR4VEV-13 Weather Reports


time (UTC)temp
C
wind
direction
speed
KPH
gust
KPH
rain 1hr
cm
rain 24hr
cm
rain mn
cm
humidity
%
barometer
mb
20260505062239 23 110 8.0 6.4 0.00 0.00 0.00 28 1018.2
20260505061238 23 138 3.2 8.0 0.00 0.00 0.00 29 1018.4
20260505060238 23 64 1.6 9.7 0.00 0.00 0.00 29 1018.5
20260505055237 23 124 1.6 8.0 0.00 0.00 0.00 28 1018.6
20260505054238 23 89 8.0 12.9 0.00 0.00 0.00 29 1018.7
20260505053239 23 97 4.8 9.7 0.00 0.00 0.00 29 1018.8
20260505052238 23 80 1.6 9.7 0.00 0.00 0.00 30 1019.0
20260505051237 23 92 4.8 6.4 0.00 0.00 0.00 30 1019.2
20260505050239 22 105 3.2 1.6 0.00 0.00 0.00 31 1019.4
20260505041238 22 326 3.2 6.4 0.00 0.00 0.00 34 1019.9
20260505040238 21 205 0.0 6.4 0.00 0.00 0.00 35 1020.0
20260505035239 21 117 3.2 11.3 0.00 0.00 0.00 35 1020.0
20260505034238 21 87 0.0 12.9 0.00 0.00 0.00 38 1020.2
20260505033237 21 122 0.0 12.9 0.00 0.00 0.00 37 1020.3
20260505032237 21 329 1.6 12.9 0.00 0.00 0.00 41 1020.2
20260505031238 21 121 0.0 6.4 0.00 0.00 0.00 43 1020.4
20260505030238 21 290 0.0 9.7 0.00 0.00 0.00 42 1020.5
20260505025238 20 124 1.6 8.0 0.00 0.00 0.00 42 1020.5
20260505024239 20 85 1.6 8.0 0.00 0.00 0.00 41 1020.7
20260505023238 20 94 3.2 8.0 0.00 0.00 0.00 46 1020.9
20260505022238 20 27 0.0 8.0 0.00 0.00 0.00 46 1021.0
20260505021238 20 145 0.0 8.0 0.00 0.00 0.00 48 1021.1
20260505020238 19 99 6.4 3.2 0.00 0.00 0.00 49 1021.2
20260505015238 18 241 0.0 11.3 0.00 0.00 0.00 49 1021.3
20260505014237 18 330 0.0 8.0 0.00 0.00 0.00 49 1021.2
20260505013238 18 115 4.8 4.8 0.00 0.00 0.00 51 1021.3
20260505012237 18 281 3.2 9.7 0.00 0.00 0.00 51 1021.3
20260505011239 18 205 0.0 4.8 0.00 0.00 0.00 52 1021.4
20260505010238 18 39 0.0 6.4 0.00 0.00 0.00 53 1021.4
20260505005237 18 108 3.2 4.8 0.00 0.00 0.00 54 1021.6
20260505004237 17 91 3.2 4.8 0.00 0.00 0.00 54 1021.5
20260505003238 17 62 1.6 6.4 0.00 0.00 0.00 57 1021.5
20260505002237 16 55 0.0 4.8 0.00 0.00 0.00 62 1021.5
20260505001238 15 67 0.0 3.2 0.00 0.00 0.00 71 1021.5
20260505000238 14 264 3.2 3.2 0.00 0.00 0.00 73 1021.6
20260504235238 13 259 0.0 4.8 0.00 0.00 0.00 77 1021.5
20260504234237 12 302 3.2 4.8 0.00 0.00 0.00 77 1021.5
20260504233238 12 271 0.0 3.2 0.00 0.00 0.00 79 1021.6
20260504232238 12 294 1.6 3.2 0.00 0.00 0.00 81 1021.8
20260504231238 11 263 0.0 4.8 0.00 0.00 0.00 83 1021.8
20260504230237 11 315 3.2 9.7 0.00 0.00 0.00 83 1021.8
20260504225237 11 297 4.8 4.8 0.00 0.00 0.00 85 1021.8
20260504224238 10 303 3.2 4.8 0.00 0.00 0.00 86 1021.8
20260504223238 10 278 1.6 4.8 0.00 0.00 0.00 88 1021.8
20260504222238 9 262 3.2 9.7 0.00 0.00 0.00 89 1021.8
20260504221237 9 305 3.2 6.4 0.00 0.00 0.00 90 1021.9
20260504220239 8 304 1.6 4.8 0.00 0.00 0.00 91 1021.7
20260504215238 8 136 0.0 3.2 0.00 0.00 0.00 92 1021.8
20260504214238 8 231 0.0 1.6 0.00 0.00 0.00 93 1021.7
20260504213237 7 205 0.0 1.6 0.00 0.00 0.00 94 1021.7
20260504212237 7 264 1.6 1.6 0.00 0.00 0.00 94 1021.6
20260504211238 7 261 0.0 3.2 0.00 0.00 0.00 95 1021.7
20260504210237 7 265 1.6 3.2 0.00 0.00 0.00 95 1021.4
20260504205237 7 265 0.0 3.2 0.00 0.00 0.00 95 1021.1
20260504204238 6 281 0.0 4.8 0.00 0.00 0.00 95 1021.0
20260504203238 6 275 1.6 3.2 0.00 0.00 0.00 95 1020.9
20260504202238 6 261 1.6 4.8 0.00 0.00 0.00 95 1020.9
20260504201238 6 241 1.6 3.2 0.00 0.00 0.00 96 1020.6
20260504200236 6 231 0.0 3.2 0.00 0.00 0.00 95 1020.5
20260504195237 6 288 0.0 4.8 0.00 0.00 0.00 95 1020.4
20260504194237 6 270 1.6 3.2 0.00 0.00 0.00 95 1020.3
20260504193236 6 255 1.6 4.8 0.00 0.00 0.00 95 1020.1
20260504192238 7 262 1.6 4.8 0.00 0.00 0.00 95 1020.0
20260504191237 7 271 1.6 3.2 0.00 0.00 0.00 95 1019.9
20260504190238 7 256 3.2 4.8 0.00 0.00 0.00 95 1019.9
20260504185237 7 261 3.2 3.2 0.00 0.00 0.00 95 1019.8
20260504184236 7 254 1.6 4.8 0.00 0.00 0.00 95 1019.7
20260504183237 7 243 0.0 4.8 0.00 0.00 0.00 95 1019.6
20260504182237 7 255 0.0 4.8 0.00 0.00 0.00 95 1019.6
20260504181236 7 203 0.0 3.2 0.00 0.00 0.00 95 1019.4
20260504180238 7 251 1.6 3.2 0.00 0.00 0.00 95 1019.4
20260504175238 7 251 3.2 4.8 0.00 0.00 0.00 94 1019.3
20260504174237 7 262 0.0 3.2 0.00 0.00 0.00 94 1019.2
20260504173236 7 255 0.0 1.6 0.00 0.00 0.00 94 1019.1
20260504172237 7 249 0.0 4.8 0.00 0.00 0.00 94 1019.1
20260504171237 7 278 0.0 4.8 0.00 0.00 0.00 94 1019.1
20260504170236 7 270 0.0 3.2 0.00 0.00 0.00 94 1018.8
20260504160237 8 258 0.0 3.2 0.00 0.00 0.00 93 1018.7
20260504150237 9 303 0.0 3.2 0.00 0.00 0.00 91 1018.7
20260504141237 10 271 0.0 1.6 0.00 0.03 0.03 90 1018.6
20260504140236 10 330 0.0 1.6 0.00 0.03 0.03 88 1018.5
20260504130237 10 276 0.0 0.0 0.00 0.03 0.03 89 1017.8
20260504120235 10 261 0.0 1.6 0.00 0.03 0.03 89 1017.0
20260504110236 11 289 0.0 3.2 0.00 0.03 0.03 88 1016.0
20260504100234 13 282 3.2 4.8 0.00 0.03 0.03 79 1014.5
20260504081236 16 271 11.3 14.5 0.00 0.03 0.03 65 1013.0
20260504080235 16 260 16.1 19.3 0.00 0.03 0.03 65 1012.6
20260504070235 17 270 16.1 24.1 0.00 0.03 0.03 59 1011.4